Location: Unspecified
(0.0000°N, 0.0000°E)
Time: 17:38:36
(UTC+00:00)

SRMSAT - Pass Details

Date: 16 December 2017
Orbit: 849 x 866 km, 20.0° (Epoch: 16 January)

Event Time Altitude Azimuth Distance (km) Brightness Sun altitude
Exits shadow 03:27:26 15° 43° (NE) 2,118 ? -33.6°
Drops below altitude 10° 03:28:34 10° 48° (NE) 2,481 ? -33.3°
Sets 03:31:19 0° 56° (NE) 3,419 ? -32.7°
